Time,TemperatureF,DewpointF,PressureIn,WindDirection,WindDirectionDegrees,WindSpeedMPH,WindSpeedGustMPH,Humidity,HourlyPrecipIn,Conditions,Clouds,dailyrainin,SolarRadiationWatts/m^2,SoftwareType,DateUTC
2013-03-28 10:52:00,34.0,23.0,-100.00,NE,47,3.0,14.0,64,-99.99,,,0.01,87.000000,,2013-03-28 18:52:00,
2013-03-28 11:22:00,34.0,23.0,-100.00,North,3,6.0,13.0,64,0.00,,,0.01,114.000000,,2013-03-28 19:22:00,
2013-03-28 11:32:00,34.0,23.0,-100.00,North,3,6.0,13.0,64,0.00,,,0.01,114.000000,,2013-03-28 19:32:00,
2013-03-28 12:12:00,34.0,23.0,-100.00,North,6,9.0,18.0,63,0.00,,,-99.99,132.000000,,2013-03-28 20:12:00,
2013-03-28 12:22:00,34.0,23.0,-100.00,North,6,9.0,18.0,63,0.00,,,-99.99,132.000000,,2013-03-28 20:22:00,
2013-03-28 12:32:00,34.0,23.0,-100.00,North,6,9.0,18.0,63,0.00,,,-99.99,132.000000,,2013-03-28 20:32:00,
2013-03-28 12:42:00,34.0,23.0,-100.00,North,6,9.0,18.0,63,0.00,,,-99.99,132.000000,,2013-03-28 20:42:00,
2013-03-28 12:52:00,34.0,23.0,-100.00,North,6,9.0,18.0,63,0.00,,,-99.99,132.000000,,2013-03-28 20:52:00,
2013-03-28 13:12:00,36.0,23.0,-100.00,ENE,64,6.0,19.0,60,0.00,,,0.01,115.000000,,2013-03-28 21:12:00,
2013-03-28 13:22:00,36.0,23.0,-100.00,ENE,64,6.0,19.0,60,0.00,,,0.01,115.000000,,2013-03-28 21:22:00,
2013-03-28 13:32:00,36.0,23.0,-100.00,ENE,64,6.0,19.0,60,0.00,,,0.01,115.000000,,2013-03-28 21:32:00,
2013-03-28 14:22:00,37.0,24.0,-100.00,ENE,62,5.0,25.0,60,0.00,,,0.01,194.000000,,2013-03-28 22:22:00,
2013-03-28 14:32:00,37.0,24.0,-100.00,ENE,62,5.0,25.0,60,0.00,,,0.01,194.000000,,2013-03-28 22:32:00,
2013-03-28 14:42:00,37.0,24.0,-100.00,ENE,62,5.0,25.0,60,0.00,,,0.01,194.000000,,2013-03-28 22:42:00,
2013-03-28 14:52:00,37.0,24.0,-100.00,ENE,62,5.0,25.0,60,0.00,,,0.01,194.000000,,2013-03-28 22:52:00,
2013-03-28 15:12:00,37.0,24.0,-100.00,East,89,8.0,16.0,59,0.00,,,0.00,259.000000,,2013-03-28 23:12:00,
2013-03-28 15:22:00,37.0,24.0,-100.00,East,89,8.0,16.0,59,0.00,,,0.00,259.000000,,2013-03-28 23:22:00,
2013-03-28 15:32:00,37.0,24.0,-100.00,East,89,8.0,16.0,59,0.00,,,0.00,259.000000,,2013-03-28 23:32:00,
2013-03-28 15:42:00,37.0,24.0,-100.00,East,89,8.0,16.0,59,0.00,,,0.00,259.000000,,2013-03-28 23:42:00,
2013-03-28 15:52:00,37.0,24.0,-100.00,East,89,8.0,16.0,59,0.00,,,0.00,259.000000,,2013-03-28 23:52:00,
2013-03-28 16:12:00,36.0,25.0,-100.00,ESE,110,8.0,22.0,65,0.00,,,0.00,336.000000,,2013-03-29 00:12:00,
2013-03-28 16:22:00,36.0,25.0,-100.00,ESE,110,8.0,22.0,65,0.00,,,0.00,336.000000,,2013-03-29 00:22:00,
2013-03-28 16:32:00,36.0,25.0,-100.00,ESE,110,8.0,22.0,65,0.00,,,0.00,336.000000,,2013-03-29 00:32:00,
2013-03-28 16:42:00,36.0,25.0,-100.00,ESE,110,8.0,22.0,65,0.00,,,0.00,336.000000,,2013-03-29 00:42:00,
2013-03-28 16:51:00,36.0,25.0,-100.00,ESE,110,8.0,22.0,65,0.00,,,0.00,336.000000,,2013-03-29 00:51:00,
2013-03-28 17:12:00,36.0,28.0,-100.00,NNE,25,6.0,12.0,73,0.00,,,-99.99,299.000000,,2013-03-29 01:12:00,
2013-03-28 17:22:00,36.0,28.0,-100.00,NNE,25,6.0,12.0,73,0.00,,,-99.99,299.000000,,2013-03-29 01:22:00,
2013-03-28 17:32:00,36.0,28.0,-100.00,NNE,25,6.0,12.0,73,0.00,,,-99.99,299.000000,,2013-03-29 01:32:00,
2013-03-28 17:42:00,36.0,28.0,-100.00,NNE,25,6.0,12.0,73,0.00,,,-99.99,299.000000,,2013-03-29 01:42:00,
2013-03-28 17:52:00,36.0,28.0,-100.00,NNE,25,6.0,12.0,73,0.00,,,-99.99,299.000000,,2013-03-29 01:52:00,
2013-03-28 18:12:00,34.0,30.0,-100.00,NE,51,3.0,10.0,85,0.00,,,-99.99,169.000000,,2013-03-29 02:12:00,
2013-03-28 18:22:00,34.0,30.0,-100.00,NE,51,3.0,10.0,85,0.00,,,-99.99,169.000000,,2013-03-29 02:22:00,
2013-03-28 18:32:00,34.0,30.0,-100.00,NE,51,3.0,10.0,85,0.00,,,-99.99,169.000000,,2013-03-29 02:32:00,
2013-03-28 18:42:00,34.0,30.0,-100.00,NE,51,3.0,10.0,85,0.00,,,-99.99,169.000000,,2013-03-29 02:42:00,
2013-03-28 18:52:00,34.0,30.0,-100.00,NE,51,3.0,10.0,85,0.00,,,-99.99,169.000000,,2013-03-29 02:52:00,
2013-03-28 19:22:00,33.0,30.0,-100.00,ENE,70,3.0,11.0,90,0.00,,,-99.99,90.000000,,2013-03-29 03:22:00,
2013-03-28 19:32:00,33.0,30.0,-100.00,ENE,70,3.0,11.0,90,0.00,,,-99.99,90.000000,,2013-03-29 03:32:00,
2013-03-28 19:42:00,33.0,30.0,-100.00,ENE,70,3.0,11.0,90,0.00,,,-99.99,90.000000,,2013-03-29 03:42:00,
2013-03-28 19:52:00,33.0,30.0,-100.00,ENE,70,3.0,11.0,90,0.00,,,-99.99,90.000000,,2013-03-29 03:52:00,
2013-03-28 20:22:00,32.0,30.0,-100.00,North,351,6.0,13.0,94,0.00,,,-99.99,44.000000,,2013-03-29 04:22:00,
2013-03-28 20:33:00,32.0,30.0,-100.00,North,351,6.0,13.0,94,0.00,,,-99.99,44.000000,,2013-03-29 04:33:00,
2013-03-28 20:42:00,32.0,30.0,-100.00,North,351,6.0,13.0,94,0.00,,,-99.99,44.000000,,2013-03-29 04:42:00,
2013-03-28 20:52:00,32.0,30.0,-100.00,North,351,6.0,13.0,94,0.00,,,-99.99,44.000000,,2013-03-29 04:52:00,
2013-03-28 21:12:00,32.0,30.0,-100.00,ENE,62,2.0,11.0,91,0.00,,,-99.99,3.000000,,2013-03-29 05:12:00,
2013-03-28 21:22:00,32.0,30.0,-100.00,ENE,62,2.0,11.0,91,0.00,,,-99.99,3.000000,,2013-03-29 05:22:00,
2013-03-28 21:32:00,32.0,30.0,-100.00,ENE,62,2.0,11.0,91,0.00,,,-99.99,3.000000,,2013-03-29 05:32:00,
2013-03-28 21:43:00,32.0,30.0,-100.00,ENE,62,2.0,11.0,91,0.00,,,-99.99,3.000000,,2013-03-29 05:43:00,
2013-03-28 21:52:00,32.0,30.0,-100.00,ENE,62,2.0,11.0,91,0.00,,,-99.99,3.000000,,2013-03-29 05:52:00,
2013-03-28 22:22:00,32.0,30.0,-100.00,North,11,6.0,16.0,91,0.00,,,-99.99,0.000000,,2013-03-29 06:22:00,
2013-03-28 22:32:00,32.0,30.0,-100.00,North,11,6.0,16.0,91,0.00,,,-99.99,0.000000,,2013-03-29 06:32:00,
2013-03-28 22:42:00,32.0,30.0,-100.00,North,11,6.0,16.0,91,0.00,,,-99.99,0.000000,,2013-03-29 06:42:00,
2013-03-28 22:51:00,32.0,30.0,-100.00,North,11,6.0,16.0,91,0.00,,,-99.99,0.000000,,2013-03-29 06:51:00,
2013-03-28 23:12:00,32.0,30.0,-100.00,NNE,18,9.0,19.0,92,0.00,,,-99.99,0.000000,,2013-03-29 07:12:00,
2013-03-28 23:22:00,32.0,30.0,-100.00,NNE,18,9.0,19.0,92,0.00,,,-99.99,0.000000,,2013-03-29 07:22:00,
2013-03-28 23:32:00,32.0,30.0,-100.00,NNE,18,9.0,19.0,92,0.00,,,-99.99,0.000000,,2013-03-29 07:32:00,
2013-03-28 23:42:00,32.0,30.0,-100.00,NNE,18,9.0,19.0,92,0.00,,,-99.99,0.000000,,2013-03-29 07:42:00,
2013-03-28 23:52:00,32.0,30.0,-100.00,NNE,18,9.0,19.0,92,0.00,,,-99.99,0.000000,,2013-03-29 07:52:00,